Lid_Strength_Index
-1 -0 0 3 11 12 14 13 10 10 10 7 6 7 9 8 10 13 2 1 0 0 -0 -1 -2 -2 -1 -1 -2 -2 -2 -1 -2 -2 -1 -1 -1 -1 -1 -1 -1 -1 -1 -1 -1 -1 -1 -1 -1
-0 1 2 6 13 16 15 11 12 10 8 6 6 7 8 9 5 4 3 1 -0 -0 -0 -1 -1 -2 -1 -1 -2 -2 -2 -1 -1 -1 -1 -1 -1 -1 -1 -1 -1 -1 -1 -1 -1 -1 -1 -1 -1
0 1 7 10 13 16 15 11 10 8 6 7 8 6 7 8 4 3 1 0 -0 -0 -0 -0 -1 -2 -1 -1 -1 -2 -2 -1 -1 -1 -1 -1 -1 -1 -1 -1 -1 -1 -1 -1 -1 -1 -1 -1 -1
2 4 6 12 14 12 11 10 8 8 7 6 6 9 5 3 4 2 0 -0 0 -0 -0 -1 -2 -2 -2 -1 -1 -1 -1 -1 -1 -1 -1 -1 -1 -1 -1 -1 -1 -1 -1 -1 -1 -1 -1 -1 -1
2 6 12 13 13 10 9 8 7 9 8 7 6 9 8 3 1 1 1 0 1 0 -0 -0 -2 -2 -2 -1 -1 -1 -1 -1 -1 -1 -1 -1 -1 -1 -1 -1 -1 -1 -1 -1 -1 -1 -1 -1 -1
7 7 13 15 13 10 8 7 7 8 7 7 8 8 7 2 2 1 0 1 -0 0 -0 -0 -1 -2 -2 -1 -1 -1 -1 -1 -1 -1 -1 -1 -1 -1 -1 -1 -1 -1 -1 -1 -1 -1 -1 -1 -1
8 10 13 13 12 11 9 6 8 8 8 8 6 9 6 4 2 1 1 0 0 -0 -0 -0 -0 -1 -2 -1 -1 -1 -1 -1 -1 -1 -1 -1 -1 -1 -1 -1 -1 -1 -1 -1 -1 -1 -1 -1 -1
7 9 13 12 13 12 8 7 6 7 8 4 4 9 9 4 2 1 1 1 0 0 -0 -0 -0 -0 -0 -0 -1 -1 -1 -1 -1 -1 -1 -1 -1 -1 -1 -2 -1 -1 -1 -1 -1 -1 -1 -2 -1
4 11 14 12 12 10 7 8 6 5 6 5 5 5 4 2 2 2 2 2 1 1 0 -0 0 -0 -0 -0 -1 -1 -1 -1 -1 -1 -1 -1 -1 -1 -1 -1 -1 -1 -1 -1 -1 -1 -1 -1 -1
8 12 11 8 8 9 7 7 7 7 7 7 6 4 3 3 3 3 3 3 3 2 1 0 -0 -0 -0 -1 -0 -0 -0 -0 -0 -1 -1 -1 -1 -1 -1 -1 -1 -1 -1 -1 -1 -1 -1 -1 -1
8 11 8 7 7 7 7 8 6 8 9 7 8 6 4 4 4 4 3 3 3 2 1 0 0 -0 -0 -0 -0 0 -0 -0 -0 -0 -1 -1 -1 -1 -1 -1 -1 -1 -1 -1 -1 -1 -1 -1 -1
10 8 7 7 6 7 8 6 8 7 7 5 5 4 4 4 4 4 4 3 2 2 1 0 -0 0 0 0 0 0 -0 -0 -0 -0 -1 -1 -0 -0 -0 -1 -1 -1 -1 -1 -1 -1 -1 -1 -1
9 8 7 6 6 6 6 7 7 7 5 4 4 4 5 4 4 3 3 2 2 2 1 1 -0 1 0 1 0 0 -0 -0 -0 -0 -0 -1 -0 0 -0 -1 -1 -0 -1 -1 -1 -0 -1 -1 -1
7 7 7 6 6 6 8 8 7 6 5 5 5 5 5 4 4 3 3 3 2 2 1 1 0 0 1 1 1 -0 -0 -0 -0 -0 -1 -1 -0 0 0 -0 -1 -0 -1 -1 -1 -1 -1 -0 -0
6 9 8 7 7 7 6 10 9 6 5 6 6 5 5 4 3 4 3 3 2 2 1 1 1 -0 1 1 1 -0 -0 -0 -0 -1 -1 -1 -1 -0 -0 -0 -0 -0 -0 -1 -1 -0 -0 1 1
10 9 13 9 8 7 8 13 8 6 6 7 6 6 5 4 4 3 2 2 2 1 1 1 0 0 1 1 0 -0 -0 -0 -0 -0 -1 -1 -1 -0 0 0 0 -0 -0 -0 -0 -0 1 2 2
15 16 14 12 9 8 8 11 7 6 7 7 7 6 5 5 4 3 2 2 2 1 1 1 1 1 0 0 -0 -0 -0 -0 -0 0 -0 -0 -0 -1 0 0 -0 -1 -0 -0 0 0 1 2 1
15 16 15 14 10 8 9 10 8 7 7 7 7 6 6 5 5 3 2 2 1 1 1 1 1 1 0 0 -0 -0 0 0 1 1 0 -0 -0 -1 -0 -0 -0 -1 -0 1 1 1 2 2 1
11 13 14 13 11 9 10 10 10 8 7 8 7 7 6 6 4 3 2 2 2 1 2 1 1 1 1 1 1 1 2 1 1 -0 -0 -1 -1 -1 -1 -1 -0 -0 0 0 1 2 2 3 1
12 13 14 13 11 10 10 10 9 8 8 7 7 7 6 5 5 4 3 2 2 2 2 1 1 1 1 1 1 1 1 1 1 -0 -0 0 -1 -1 -0 -0 0 -0 1 1 1 2 3 2 1
14 13 14 14 10 10 10 12 11 9 7 7 6 6 5 5 5 4 4 3 2 2 2 2 1 1 1 0 0 1 1 1 1 1 0 0 -0 -1 -1 -0 1 -0 0 1 1 3 2 2 1
15 12 12 12 14 16 10 17 13 10 10 8 7 7 6 5 4 4 4 3 3 2 2 1 1 1 1 0 1 2 2 3 2 1 0 0 -0 -1 -1 -0 0 0 1 1 2 3 2 2 2
11 10 12 12 14 16 13 15 13 10 12 10 8 7 6 5 4 4 4 3 2 2 2 1 1 1 1 1 1 1 2 1 1 1 1 1 0 -0 -0 -0 -0 1 1 1 2 2 2 2 1
9 11 13 14 15 17 15 14 14 13 11 9 7 6 6 5 4 4 3 3 3 2 2 2 2 2 1 1 1 1 2 2 2 2 2 1 1 0 -0 -0 0 0 1 1 2 2 2 2 0
11 14 17 18 19 17 15 14 12 9 8 8 8 7 6 5 5 4 4 3 3 3 2 2 2 2 1 1 1 1 1 1 2 2 1 1 1 1 0 0 1 1 1 1 2 3 2 1 1
13 14 18 21 21 16 15 16 13 8 7 6 6 6 5 5 4 4 4 3 3 3 2 2 2 2 2 1 1 1 1 1 1 1 1 1 1 1 0 0 0 1 1 1 2 3 3 1 1
14 15 13 17 17 18 16 14 10 8 8 7 6 6 6 5 4 4 4 3 3 3 3 2 2 2 2 2 1 1 1 1 1 1 1 1 0 0 1 0 0 1 1 2 2 2 2 2 1
13 12 15 18 19 20 18 16 14 10 9 9 8 7 6 5 5 4 4 3 3 2 2 2 2 2 2 1 1 1 1 1 1 1 2 1 1 0 0 0 0 1 2 2 3 2 2 1 2
15 16 17 15 18 19 20 17 12 9 8 9 8 6 6 5 5 4 4 3 3 2 2 2 2 2 2 2 1 1 1 1 1 1 1 1 1 1 0 0 0 1 2 2 3 3 3 2 1
10 12 16 15 19 18 18 17 11 10 8 7 8 8 5 5 4 4 3 3 3 3 3 3 2 2 2 2 2 2 1 1 1 1 1 1 1 1 1 0 1 1 1 2 2 3 2 2 2